Wind_Speed
3 3 2 6 10 10 6 4 3 2 5 11 7 13 19 17 14 13 9 5 4 2 5 9 12 11 10 6 5 12 21 25 23 23 25 22 19 16 13 14 14 13 15 15
3 2 1 4 5 6 3 4 4 4 7 1 15 13 14 17 14 12 11 8 6 3 8 12 10 8 6 4 2 5 10 21 22 17 18 18 15 14 12 11 10 11 13 15
6 0 2 6 12 11 4 5 4 8 6 9 12 13 14 16 9 8 10 11 8 8 6 14 14 5 1 1 5 6 3 8 17 19 7 10 8 7 8 10 11 14 17 18
3 4 9 4 0 6 11 6 6 5 5 5 6 9 8 10 10 9 9 10 9 6 4 7 19 15 5 4 1 3 3 10 13 9 10 17 7 6 7 8 9 11 15 21
4 9 4 4 5 6 10 10 4 5 5 6 5 2 4 13 8 11 9 8 7 7 6 2 6 15 12 7 4 3 4 4 6 8 11 11 8 7 9 12 14 16 19 20
3 6 13 6 7 1 3 10 6 3 2 7 4 4 3 13 11 8 7 6 5 5 4 4 4 7 9 10 8 8 7 7 7 5 4 7 9 10 10 11 13 15 16 22
7 8 6 3 3 4 10 5 10 6 3 6 3 3 4 9 10 10 9 7 6 6 7 9 10 11 14 15 15 12 9 8 8 8 9 11 14 16 17 16 15 15 19 19
3 5 10 2 5 7 5 9 9 6 3 2 3 5 5 9 11 13 13 13 13 14 14 15 14 17 20 22 21 18 17 16 14 11 11 14 14 14 16 18 18 18 20 22
6 1 1 1 3 7 7 10 6 4 2 4 6 8 13 16 17 18 20 21 22 23 24 25 24 22 22 21 23 25 23 24 22 20 16 15 15 16 16 18 19 21 23 25
3 5 6 4 5 7 8 6 5 4 4 6 8 9 12 15 18 21 23 25 25 27 28 30 30 30 29 28 28 26 26 28 28 26 22 20 17 17 19 20 20 20 23 26
3 3 4 12 13 11 9 7 7 6 5 6 9 10 12 17 21 23 25 27 28 29 30 32 32 34 33 34 36 38 37 33 33 32 30 27 25 21 20 21 20 21 23 26
7 9 9 6 17 18 14 9 8 8 8 10 14 18 20 23 24 25 27 28 29 29 30 32 33 33 34 34 35 40 43 43 36 36 33 35 32 27 25 22 22 22 25 28
3 5 13 11 7 10 19 14 10 10 12 17 19 19 21 23 26 28 29 28 28 28 29 30 29 31 32 30 31 35 42 47 44 35 38 38 38 34 31 27 26 25 27 28
9 6 8 15 6 10 13 11 12 15 19 20 21 22 21 21 22 24 26 28 29 29 29 29 30 32 30 30 30 30 33 38 41 43 36 38 41 39 35 31 27 27 30 29
13 10 7 5 7 10 10 13 16 18 19 20 19 19 19 21 22 24 29 30 31 32 32 32 32 34 32 32 33 34 34 36 39 37 38 40 36 37 37 31 28 28 31 30
10 10 8 7 7 9 12 13 17 22 21 22 21 22 23 23 26 28 32 35 33 31 34 34 35 34 32 35 36 36 36 35 33 30 29 31 32 32 35 30 27 30 30 30
9 5 6 7 9 11 16 19 22 23 24 24 26 25 25 28 29 32 35 37 37 40 36 35 36 35 35 33 32 32 33 32 28 22 27 25 26 29 31 27 27 30 29 27
3 1 6 11 15 19 21 22 23 25 26 30 32 32 33 34 34 38 42 42 40 42 35 31 34 36 33 31 30 29 29 29 28 25 23 22 24 24 25 28 30 31 29 25
3 7 11 15 18 22 25 27 29 31 32 32 31 31 31 32 37 40 38 34 38 36 30 33 34 32 33 35 33 32 33 32 30 29 28 32 30 28 24 29 30 31 28 23
8 12 16 20 24 25 25 25 24 24 27 27 25 26 27 29 29 29 28 33 30 31 32 30 29 33 38 40 40 38 38 37 37 35 34 32 27 26 27 30 28 29 26 17
12 16 20 20 22 21 22 19 23 27 29 28 27 28 28 26 26 26 26 28 28 23 23 29 32 39 41 41 41 40 38 42 44 44 38 35 34 28 25 24 25 26 24 22
13 15 18 20 21 23 23 23 21 23 24 22 22 23 23 23 22 22 22 24 19 24 27 31 38 37 42 38 36 36 38 40 40 42 42 40 35 30 24 24 26 26 28 21
13 16 19 22 24 25 26 16 15 18 19 18 19 19 19 19 19 22 22 14 19 25 28 30 30 35 33 29 27 27 21 25 33 37 40 41 36 31 24 26 30 28 29 30
17 19 22 25 29 26 24 16 14 18 21 20 18 16 17 20 20 12 9 15 18 21 26 33 31 26 22 21 17 7 10 6 15 29 38 35 32 26 27 30 33 37 27 35
22 24 27 29 26 20 21 16 16 17 20 20 17 15 18 20 16 4 7 15 21 24 23 37 38 39 25 21 17 14 11 18 24 28 29 28 26 29 38 39 37 30 37 40
23 25 23 19 19 20 18 18 19 19 17 18 17 15 15 15 2 5 9 13 20 28 28 30 39 49 32 28 23 25 30 26 19 24 26 30 36 42 39 36 39 42 47 48
19 17 16 18 15 17 22 20 20 19 17 18 19 13 10 4 5 5 9 12 20 25 25 27 35 43 50 52 44 29 30 36 37 41 41 42 40 37 36 39 48 48 43 40
Wind_Direction
83 119 174 172 174 178 183 153 247 359 274 300 333 328 311 300 299 311 322 342 30 123 152 136 140 147 147 155 205 247 240 233 227 230 236 235 223 227 233 243 251 260 267 265
137 104 71 217 221 224 203 168 242 249 286 299 314 323 328 317 283 304 322 333 327 288 179 171 147 147 145 124 45 344 271 241 227 219 212 233 222 201 212 230 243 244 252 259
183 144 176 233 225 213 208 209 235 265 302 337 320 341 345 340 330 327 333 325 334 308 253 209 188 170 141 15 359 7 13 141 173 220 222 260 225 228 241 244 253 253 251 252
140 160 227 239 14 250 225 196 218 253 240 316 292 333 14 7 356 2 351 344 336 338 305 237 224 236 267 237 316 6 41 146 165 218 185 233 260 266 285 293 290 279 274 262
198 216 289 221 193 183 197 214 215 259 293 314 312 326 42 12 18 8 16 7 355 357 18 17 241 239 242 227 241 271 273 232 167 167 187 215 246 267 279 288 292 292 284 282
155 236 257 268 160 58 179 250 179 206 312 330 322 244 43 2 4 1 7 4 345 308 314 323 294 265 255 254 272 275 265 264 273 276 278 300 308 311 317 312 308 303 297 288
221 244 268 221 183 161 210 255 147 128 84 30 57 30 345 355 353 356 346 329 310 288 278 268 265 264 264 264 272 280 265 225 245 278 307 319 321 320 319 318 314 307 299 292
165 221 258 128 158 209 115 133 140 141 122 34 350 328 322 330 328 324 321 309 299 290 277 279 283 280 276 272 271 267 260 262 265 274 291 305 318 324 320 319 317 314 304 295
216 224 50 247 259 151 151 153 165 171 224 307 320 319 320 321 322 320 316 311 308 305 295 290 295 297 295 293 283 267 262 257 261 271 279 286 298 306 309 312 314 316 311 303
201 182 206 201 181 178 175 177 199 246 277 296 305 313 315 316 316 317 319 317 314 308 303 294 292 294 292 287 288 285 271 257 251 255 266 266 272 286 297 303 303 308 311 308
242 242 242 241 223 206 208 223 231 241 267 291 304 309 312 311 310 310 309 309 310 310 309 303 295 290 289 287 281 280 282 276 265 258 255 259 263 265 278 288 291 296 302 303
256 209 201 227 226 220 221 235 234 249 269 291 302 304 307 303 304 304 305 301 299 301 302 300 297 294 295 294 288 281 277 275 271 264 259 257 259 263 265 272 279 285 293 296
215 202 213 233 249 247 228 241 243 262 286 297 299 302 299 296 299 300 299 296 293 296 298 300 295 295 296 295 294 289 278 270 271 263 258 257 257 257 263 265 267 274 281 290
222 235 226 231 234 238 237 242 260 279 287 292 294 297 293 291 292 297 299 299 297 296 296 300 296 297 298 295 296 291 285 281 274 273 258 253 253 252 253 257 262 270 275 284
245 233 228 230 239 253 249 259 276 283 289 289 289 287 288 289 290 295 304 305 300 293 291 294 297 299 301 297 291 289 287 283 282 268 257 248 246 243 242 246 257 267 273 281
213 211 230 250 262 273 280 283 286 291 292 292 289 286 286 288 288 296 303 306 303 296 287 286 289 299 302 297 292 285 283 281 281 260 251 242 237 228 231 238 251 262 268 278
165 204 246 274 293 302 301 299 297 294 295 293 293 293 290 291 290 294 300 302 299 300 293 285 289 300 301 294 288 285 279 277 276 266 247 237 223 219 226 238 249 256 265 274
171 269 307 303 305 306 304 302 300 298 295 297 296 295 292 292 291 293 296 300 299 300 292 288 295 299 295 292 291 289 278 271 265 252 241 230 224 225 231 241 249 256 262 269
263 301 309 306 304 301 301 302 302 301 299 298 296 292 290 287 289 291 295 296 299 297 296 303 300 295 293 292 292 287 278 268 258 251 240 238 239 236 235 242 247 253 257 261
297 307 308 308 306 303 301 303 308 311 315 312 305 301 296 291 293 295 298 297 294 301 309 308 309 303 299 295 290 281 272 262 255 248 241 235 232 232 235 240 242 244 247 241
310 313 313 314 313 314 314 311 307 307 311 307 306 307 302 301 304 305 301 299 312 315 313 317 319 312 304 298 292 282 269 257 246 241 234 232 234 228 229 230 232 236 225 220
311 315 324 328 320 316 319 310 313 319 315 313 308 306 307 308 312 310 310 314 328 329 325 324 322 322 316 308 297 287 271 259 248 231 224 225 226 218 217 220 224 223 214 211
314 320 327 331 326 318 319 312 322 328 322 327 324 325 321 317 319 316 323 340 338 341 340 335 337 322 316 319 314 301 290 263 241 226 212 209 213 211 209 211 213 216 207 203
306 311 315 319 322 318 318 312 307 304 308 314 325 333 331 328 330 336 342 358 15 16 26 6 356 347 343 347 349 353 4 76 167 185 188 197 197 201 203 203 200 192 200 192
307 308 310 314 313 311 316 311 306 304 305 306 316 325 328 331 322 340 21 48 31 37 48 25 21 15 20 24 33 73 101 124 147 165 175 179 183 186 184 189 190 195 175 170
312 313 316 318 317 316 320 319 312 306 301 303 301 311 323 340 45 82 69 70 53 57 55 39 35 32 40 50 55 84 106 127 142 155 162 168 172 169 171 173 174 167 151 143
323 324 327 329 331 325 325 322 314 308 304 298 296 303 323 325 126 98 87 88 76 68 60 53 48 50 53 57 57 74 96 114 131 142 145 147 150 156 161 150 135 126 131 138
Height
1534 1533 1534 1531 1533 1536 1535 1537 1542 1538 1541 1528 1527 1526 1522 1520 1519 1518 1519 1521 1523 1523 1526 1526 1528 1529 1529 1528 1530 1530 1529 1528 1530 1534 1538 1540 1542 1545 1546 1547 1547 1548 1549 1549
1538 1537 1537 1537 1534 1533 1532 1536 1535 1534 1531 1526 1527 1525 1523 1520 1518 1519 1520 1522 1523 1525 1527 1528 1528 1530 1530 1530 1529 1528 1527 1530 1533 1536 1538 1543 1542 1540 1541 1542 1541 1541 1543 1543
1541 1542 1539 1545 1530 1532 1530 1530 1527 1532 1525 1528 1525 1525 1524 1520 1520 1520 1520 1520 1522 1524 1525 1527 1528 1529 1529 1529 1528 1527 1525 1526 1529 1528 1535 1535 1536 1537 1538 1537 1536 1536 1537 1537
1539 1543 1556 1524 1527 1526 1524 1526 1527 1525 1524 1527 1526 1526 1525 1523 1521 1521 1520 1520 1520 1522 1523 1524 1527 1529 1530 1529 1528 1528 1528 1529 1530 1528 1524 1529 1534 1533 1535 1533 1532 1530 1531 1531
1540 1539 1532 1525 1526 1526 1525 1525 1528 1527 1526 1526 1524 1524 1524 1522 1522 1521 1521 1521 1520 1521 1522 1523 1524 1525 1528 1528 1529 1528 1528 1529 1530 1532 1534 1536 1531 1529 1530 1528 1527 1524 1524 1525
1545 1542 1541 1517 1522 1524 1525 1525 1525 1526 1526 1525 1522 1519 1524 1523 1522 1521 1521 1520 1521 1521 1521 1523 1524 1524 1526 1526 1526 1526 1526 1525 1525 1526 1526 1526 1525 1525 1522 1521 1520 1519 1518 1518
1531 1532 1522 1518 1522 1524 1532 1520 1522 1524 1525 1525 1524 1527 1527 1525 1524 1523 1521 1520 1520 1519 1519 1520 1520 1521 1522 1523 1522 1522 1521 1523 1523 1522 1520 1519 1519 1518 1516 1515 1515 1515 1513 1513
1536 1536 1535 1521 1522 1522 1517 1519 1521 1524 1526 1526 1526 1526 1526 1525 1524 1523 1522 1520 1519 1518 1518 1518 1517 1516 1516 1517 1519 1519 1518 1518 1517 1517 1515 1514 1513 1512 1512 1510 1509 1509 1508 1507
1521 1516 1520 1519 1519 1518 1519 1519 1522 1523 1524 1525 1525 1525 1524 1522 1521 1520 1519 1518 1517 1516 1514 1513 1513 1512 1511 1511 1511 1512 1513 1513 1513 1511 1509 1508 1507 1506 1506 1506 1505 1504 1502 1500
1521 1518 1519 1519 1519 1519 1519 1520 1521 1521 1522 1523 1524 1523 1522 1521 1519 1517 1515 1513 1511 1510 1508 1507 1506 1505 1505 1505 1504 1503 1503 1504 1505 1505 1504 1503 1502 1499 1499 1499 1500 1500 1498 1496
1517 1518 1519 1517 1517 1517 1518 1518 1519 1520 1520 1521 1521 1520 1519 1518 1516 1515 1512 1510 1507 1504 1502 1500 1498 1496 1496 1496 1495 1493 1491 1492 1494 1494 1495 1495 1494 1493 1493 1493 1494 1493 1493 1492
1508 1508 1509 1510 1512 1514 1515 1516 1517 1517 1517 1518 1517 1516 1515 1513 1511 1510 1508 1505 1502 1499 1496 1493 1490 1488 1486 1485 1484 1481 1480 1479 1479 1481 1483 1484 1485 1484 1485 1486 1485 1486 1486 1485
1505 1506 1507 1508 1509 1510 1512 1513 1514 1514 1514 1514 1513 1512 1510 1508 1505 1503 1500 1498 1495 1493 1489 1486 1482 1479 1477 1475 1471 1468 1464 1464 1465 1466 1469 1470 1471 1473 1476 1476 1477 1478 1478 1477
1502 1504 1506 1506 1508 1508 1509 1511 1511 1512 1511 1510 1508 1507 1504 1502 1499 1496 1493 1490 1487 1484 1481 1478 1474 1469 1468 1465 1461 1458 1455 1452 1451 1450 1453 1455 1457 1460 1464 1467 1468 1469 1469 1470
1500 1501 1503 1504 1505 1506 1508 1508 1508 1507 1506 1504 1503 1500 1498 1495 1492 1488 1485 1482 1478 1474 1471 1468 1463 1459 1457 1454 1449 1446 1443 1440 1438 1436 1436 1439 1444 1447 1451 1456 1458 1460 1461 1460
1496 1499 1501 1502 1503 1505 1505 1505 1504 1502 1499 1497 1495 1493 1490 1487 1483 1480 1477 1473 1469 1464 1461 1457 1452 1450 1447 1442 1438 1434 1431 1428 1426 1424 1426 1426 1431 1435 1439 1445 1449 1450 1451 1451
1495 1498 1499 1500 1501 1501 1501 1499 1497 1494 1491 1489 1486 1484 1481 1478 1474 1470 1467 1463 1458 1452 1448 1445 1441 1439 1434 1430 1426 1422 1420 1418 1416 1414 1414 1417 1421 1424 1429 1434 1438 1440 1442 1443
1496 1497 1498 1498 1497 1495 1493 1492 1490 1487 1484 1480 1477 1474 1471 1468 1463 1459 1455 1451 1446 1440 1437 1434 1431 1426 1422 1418 1415 1411 1409 1407 1407 1406 1407 1411 1414 1417 1420 1424 1428 1431 1432 1434
1494 1495 1495 1494 1492 1490 1487 1484 1482 1478 1474 1471 1467 1463 1460 1456 1452 1448 1445 1441 1435 1429 1425 1423 1418 1413 1409 1405 1402 1399 1396 1396 1395 1396 1398 1401 1405 1408 1411 1415 1419 1422 1424 1427
1492 1492 1490 1489 1486 1484 1480 1478 1474 1471 1467 1463 1459 1455 1450 1445 1442 1439 1436 1430 1425 1422 1416 1411 1406 1401 1396 1390 1386 1383 1380 1379 1379 1381 1385 1389 1394 1399 1403 1407 1410 1412 1416 1420
1488 1487 1485 1483 1480 1477 1474 1471 1467 1463 1459 1456 1452 1448 1443 1439 1436 1432 1427 1422 1418 1414 1409 1403 1397 1389 1379 1369 1362 1356 1354 1355 1357 1361 1369 1375 1382 1389 1394 1399 1402 1406 1411 1414
1485 1483 1481 1477 1474 1470 1468 1464 1461 1456 1452 1448 1445 1441 1437 1433 1430 1426 1424 1419 1413 1408 1402 1395 1386 1373 1363 1353 1343 1336 1329 1330 1335 1343 1352 1363 1371 1380 1386 1391 1396 1400 1405 1411
1481 1478 1475 1472 1469 1464 1460 1457 1455 1452 1447 1443 1440 1437 1433 1429 1426 1422 1418 1416 1411 1405 1398 1388 1375 1365 1353 1342 1330 1320 1313 1309 1313 1326 1339 1351 1362 1372 1380 1385 1389 1395 1401 1406
1476 1473 1470 1467 1462 1458 1454 1451 1449 1446 1443 1440 1437 1434 1430 1426 1423 1420 1418 1414 1411 1404 1396 1387 1375 1359 1347 1336 1324 1316 1311 1305 1309 1321 1334 1349 1359 1368 1374 1379 1385 1391 1398 1404
1471 1467 1463 1460 1455 1452 1449 1446 1443 1440 1437 1435 1433 1430 1428 1425 1422 1420 1418 1416 1412 1404 1396 1390 1376 1361 1348 1339 1329 1320 1320 1319 1323 1331 1340 1350 1358 1364 1369 1375 1383 1390 1398 1406
1464 1460 1456 1453 1450 1446 1443 1440 1437 1434 1432 1430 1428 1427 1425 1423 1420 1420 1419 1418 1414 1409 1402 1393 1383 1372 1356 1347 1340 1332 1328 1330 1335 1340 1345 1351 1357 1363 1372 1379 1386 1390 1399 1411
1458 1455 1452 1449 1446 1443 1439 1435 1431 1428 1427 1425 1423 1423 1422 1421 1420 1420 1420 1420 1417 1413 1409 1403 1395 1387 1377 1366 1358 1350 1346 1343 1343 1346 1350 1356 1363 1370 1373 1385 1394 1403 1415 1425